User: anonymous   Login
Location: Newark
(3.0500°N, 36.0167°E)
Time: 03:48:59
(UTC+00:00)
Language:

Transit 2A Rocket - Orbit

View from above orbital plane
View from above orbital plane
View from above satellite
View from above satellite

Ground track
Ground track

The orbit data is extracted from the following two-line orbital elements,

1    47U 60007C   20220.53645440 -.00000061  00000-0  11768-4 0  9996
2    47  66.6665  18.4113 0235423 266.0024  91.4141 14.42095662142483
Epoch (UTC): 07 August 2020 12:52:29
Eccentricity: 0.0235423
inclination: 66.6665°
perigee height: 584 km
apogee height: 919 km
right ascension of ascending node: 18.4113°
argument of perigee: 266.0024°
revolutions per day: 14.42095662
mean anomaly at epoch: 91.4141°
orbit number at epoch: 14248

The dashed part of the orbit path shows where the satellite is in the earth's shadow,  

DLR